Погода в Старом Ракомо

Россия / Новгородская область     58°26′47″N   31°13′43″E
темп.,
°C
ветер,
м/с
пор.,
м/с
влажн.,
%
обл.,
%
осадки,
мм/ч
давл.,
гПа
погр.,
м
24 июля, сб
сб2400:00+15сз2363100 0.0 101284
03:00+14ссз2264100 0.0 101349
06:00+14ссв117098 0.0 101339
09:00+18ссз015412 0.0 1014800
12:00+20ссз243756 0.0 10152205
15:00+21з243599 0.0 10152229
18:00+19юз3649100 0.0 1015425
21:00+18зюз376380 0.0 1016204
25 июля, вс
вс2500:00+13ссз227418 0.0 101722
03:00+12сз11725 0.0 101821
06:00+12сз11691 0.0 101925
09:00+18ю11514 0.0 1019350
12:00+23ю21401 0.0 1019985
15:00+24ю233337 0.0 10192061
18:00+24ююз233934 0.0 10191211
21:00+18ююз22575 0.0 101912
26 июля, пн
пн2600:00+17ю236476 0.0 102137
03:00+18ю246891 0.0 102191
06:00+17ю22795 0.0 102141
09:00+22ю23580 0.0 1022394
12:00+25ю22445 0.0 1022885
15:00+27ю22369 0.0 10211982
18:00+27ююв11395 0.0 10201309
21:00+22ююв11565 0.0 102011
27 июля, вт
вт2700:00+19ююв22666 0.0 102118
03:00+18юв228078 0.0 102123
06:00+19юв22765 0.0 102155
09:00+23ююв235910 0.0 1021330
12:00+27ю22431 0.0 1020780
15:00+29ю223221 0.0 10192307
18:00+29ю22335 0.0 10181437
21:00+22ю22504 0.0 101712
28 июля, ср
ср2800:00+22ю366399 0.0 1016126
03:00+18ююв35805 0.0 101592
06:00+19ююв377996 0.0 1014168
09:00+23ююв466099 0.0 1012359
12:00+26ююз475394 0.0 1011805
15:00+29ююз584511 0.0 10091980
18:00+27ююз6950100 0.0 10081514
21:00+21ююз497099 0.0 1008591